User: anonymous   Login
Location: Mount Graham
(32.7016°N, 109.8912°W)
Time: 09:57:58
(UTC-07:00)
Language:

Cosmos 1340 - Orbit

View from above orbital plane
View from above orbital plane
View from above satellite
View from above satellite

Ground track
Ground track

The orbit data is extracted from the following two-line orbital elements,

1 13067U 82013A   16272.07550338  .00001725  00000-0  81835-4 0  9994
2 13067  81.1848  79.8028 0003052 352.2878 147.1749 15.18759434888024
Epoch (UTC): 28 September 2016 01:48:43
Eccentricity: 0.0003052
inclination: 81.1848°
perigee height: 507 km
apogee height: 511 km
right ascension of ascending node: 79.8028°
argument of perigee: 352.2878°
revolutions per day: 15.18759434
mean anomaly at epoch: 147.1749°
orbit number at epoch: 88802

The dashed part of the orbit path shows where the satellite is in the earth's shadow,  

DLR